sat.trackr.live / text

‹ back to catalog

STARLINK-31242

NORAD 58864 · 2024-019M

PAYLOAD ACTIVE UNKNOWN

§ Identity

Operator
Country
US
Launch date
2024-01-29
Launch site
AFETR
Launch vehicle
Mass (kg)
RCS (m²)

Purposes: comms

External: N2YO · Heavens-Above · Gunter

§ Orbital elements

Epoch: 2026-05-25T03:13:45.336864Z

Period
94.27 min
Inclination
43.0018°
Eccentricity
0.0001119
Mean motion
15.27577597 rev/d
Perigee alt
482.3 km
Apogee alt
483.8 km
Semi-major
6,861.2 km
B*
-1.2553e-6
RAAN
177.2062°
Arg perigee
274.3000°
Mean anomaly
85.7724°
Rev number
13,077

§ Raw data

STARLINK-312421 58864U 24019M   26145.13455251 -.00000297  00000+0 -12553-5 0  99912 58864  43.0018 177.2062 0001119 274.3000  85.7724 15.27577597130778

JSON: /api/v1/satellites/58864 · /tle

For live sub-satellite position, see the globe view (requires WebGL).

§ Visibility from observer

Set your observer location to see the next 7 days of passes ≥ 10°. The values pass through the URL so the page stays shareable.

No JS? Fill the form by hand. The geolocation button needs JavaScript.